Location: Courcelles
(49.2596°N, 1.7419°E)
Time: 07:10:05
(UTC+00:00)

COSMOS 2406 - Pass Details

Date: 17 November 2025
Orbit: 845 x 858 km, 71.0° (Epoch: 06 December)

Event Time Altitude Azimuth Distance (km) Brightness Sun altitude
Rises 18:18:00 0° 331° (NNW) 3,418 6.7 -20.8°
Reaches altitude 10° 18:20:28 10° 333° (NNW) 2,479 5.9 -21.2°
Maximum altitude 18:26:10 78° 60° (ENE) 872 3.1 -22.2°
Enters shadow 18:29:08 30° 143° (SE) 1,491 4.2 -22.6°
